Вернуться в каталог

STARLINK-34560

АктивенСвязьVLEO
NORAD 64700·PAYLOAD·🇺🇸 United States

Запущен Jun 28, 2025 с Vandenberg Space Force Base

Loading…

Ближайшие Пролёты (ближайшие 24 часа)

TLE

СвежийSource: CelesTrak SupGP

Эпоха: Sep 14, 2026, 21:11 UTC

1 64700C 25142E   26257.88312500  .00003037  00000+0  10561-3 0  2575
2 64700  70.0014 195.7431 0002929 265.0665  28.1989 15.29587406    18

Отслеживайте STARLINK-34560 в реальном времени с AllMySat

Download on the App Store